Overview Statistics Trail Chart Weather Telemetry Raw packets
 

This is the latest recevied weather packets stored in our database for station/object KF6FPU-15. If no packets are shown the sender has not sent any weather packets the latest 10 day(s).

<< 41 42 43 44 45 46 47 >>
Time Temp. Humidity Pressure Rain* Wind** Luminosity Snow
1787972583 33.33° C 19% 1013 hPa - - - -
1787971983 33.33° C 19% 1012.9 hPa - - - -
1787971383 33.33° C 19% 1012.9 hPa - - - -
1787970783 33.33° C 19% 1012.9 hPa - - - -
1787970183 33.33° C 19% 1013 hPa - - - -
1787969583 33.89° C 19% 1013.1 hPa - - - -
1787968983 33.33° C 19% 1013.1 hPa - - - -
1787967783 33.33° C 19% 1013.2 hPa - - - -
1787967183 33.89° C 19% 1013.3 hPa - - - -
1787966583 33.89° C 19% 1013.4 hPa - - - -
1787965983 33.89° C 19% 1013.3 hPa - - - -
1787965383 33.89° C 19% 1013.5 hPa - - - -
1787964783 33.89° C 19% 1013.4 hPa - - - -
1787964183 33.89° C 19% 1013.4 hPa - - - -
1787963583 34.44° C 19% 1013.4 hPa - - - -
1787962983 34.44° C 19% 1013.5 hPa - - - -
1787962383 35° C 18% 1013.5 hPa - - - -
1787961183 35.56° C 18% 1013.6 hPa - - - -
1787960583 36.11° C 18% 1013.8 hPa - - - -
1787959983 37.22° C 18% 1013.7 hPa - - - -
1787959383 38.33° C 18% 1013.7 hPa - - - -
1787958783 40° C 18% 1013.9 hPa - - - -
1787958183 41.67° C 17% 1014.1 hPa - - - -
1787957583 41.67° C 17% 1014.2 hPa - - - -
1787956983 41.67° C 17% 1014.2 hPa - - - -

* Rain since midnight (hover to see other rain measurements)
** Current wind speed in m/s (hover to see current wind gust speed)